When you browse on this site, cookies collect data to enhance your experience and personalize the content and advertising you see.
Visit our Privacy Policy to learn more. By continuing to use the site, you agree to this use of cookies and data.
  • In Hungary
  • List of Countries
  • For 7 days
  • Water Temperature
  • Satellite Maps
  • Weather Map
  • News
  • Weather Widgets
  • user-avatar
    Login

    Hourly Weather Razgrad

    Today, 15 December, Saturday

    Time Temperature Precipitation Wind Pressure Humidity
    00:00 +1°C° 0.4 mm 4 mps 744 mmHg 93%
    01:00 +1°C° 0.4 mm 4 mps 744 mmHg 94%
    02:00 +1°C° 0 mm 4 mps 744 mmHg 95%
    03:00 +1°C° 0.3 mm 4 mps 744 mmHg 95%
    04:00 +3°C° 0.3 mm 4 mps 744 mmHg 95%
    05:00 +3°C° 0.3 mm 3 mps 744 mmHg 96%
    06:00 +3°C° 0.2 mm 3 mps 744 mmHg 96%
    07:00 +3°C° 0.2 mm 3 mps 744 mmHg 96%
    08:00 +3°C° 0 mm 4 mps 744 mmHg 96%
    09:00 +4°C° 0.1 mm 4 mps 744 mmHg 95%
    10:00 +4°C° 0.1 mm 3 mps 744 mmHg 94%
    11:00 +5°C° 0.1 mm 3 mps 744 mmHg 93%
    12:00 +5°C° 0.1 mm 3 mps 744 mmHg 93%
    13:00 +5°C° 0.1 mm 3 mps 744 mmHg 94%
    14:00 +5°C° 0 mm 3 mps 743 mmHg 94%
    15:00 +5°C° 0.1 mm 3 mps 743 mmHg 94%
    16:00 +5°C° 0.1 mm 3 mps 743 mmHg 95%
    17:00 +5°C° 0.1 mm 3 mps 743 mmHg 96%
    18:00 +5°C° 0.1 mm 3 mps 743 mmHg 96%
    19:00 +7°C° 0.1 mm 3 mps 743 mmHg 97%
    20:00 +7°C° 0.1 mm 3 mps 742 mmHg 97%
    21:00 +7°C° 0.2 mm 3 mps 742 mmHg 96%
    22:00 +8°C° 0.2 mm 3 mps 742 mmHg 96%
    23:00 +8°C° 0.2 mm 3 mps 742 mmHg 96%

    Tomorrow, 16 December, Sunday

    Time Temperature Precipitation Wind Pressure Humidity
    00:00 +7°C° 0.1 mm 4 mps 741 mmHg 95%
    01:00 +7°C° 0.1 mm 4 mps 741 mmHg 95%
    02:00 +8°C° 0.1 mm 4 mps 741 mmHg 94%
    03:00 +8°C° 0.1 mm 4 mps 741 mmHg 93%
    04:00 +8°C° 0.1 mm 4 mps 741 mmHg 93%
    05:00 +8°C° 0.1 mm 4 mps 740 mmHg 92%
    06:00 +8°C° 0 mm 4 mps 740 mmHg 92%
    07:00 +8°C° 0 mm 4 mps 740 mmHg 92%
    08:00 +9°C° 0 mm 3 mps 740 mmHg 92%
    09:00 +8°C° 0 mm 4 mps 740 mmHg 88%
    10:00 +10°C° 0 mm 4 mps 741 mmHg 85%
    11:00 +11°C° 0 mm 4 mps 741 mmHg 81%
    12:00 +11°C° 0.1 mm 4 mps 741 mmHg 81%
    13:00 +10°C° 0.1 mm 4 mps 741 mmHg 81%
    14:00 +10°C° 0.1 mm 4 mps 741 mmHg 80%
    15:00 +8°C° 0.3 mm 3 mps 741 mmHg 84%
    16:00 +7°C° 0.3 mm 3 mps 741 mmHg 87%
    17:00 +4°C° 0.3 mm 3 mps 741 mmHg 90%
    18:00 +4°C° 0.5 mm 3 mps 742 mmHg 90%
    19:00 +3°C° 0.5 mm 3 mps 742 mmHg 90%
    20:00 +2°C° 0.5 mm 3 mps 742 mmHg 89%
    21:00 +2°C° 0.2 mm 3 mps 742 mmHg 89%
    22:00 +1°C° 0.2 mm 3 mps 743 mmHg 88%
    23:00 +1°C° 0.2 mm 3 mps 743 mmHg 88%

    Day after tomorrow, 17 December, Monday

    Time Temperature Precipitation Wind Pressure Humidity
    00:00 +1°C° 0.3 mm 3 mps 743 mmHg 88%
    01:00 +1°C° 0.3 mm 3 mps 743 mmHg 88%
    02:00 +1°C° 0.3 mm 3 mps 743 mmHg 88%
    03:00 +2°C° 0.2 mm 2 mps 743 mmHg 87%
    04:00 +2°C° 0.2 mm 2 mps 743 mmHg 87%
    05:00 +2°C° 0.2 mm 2 mps 743 mmHg 86%
    06:00 +2°C° 0.2 mm 2 mps 743 mmHg 86%
    07:00 +1°C° 0.2 mm 2 mps 743 mmHg 85%
    08:00 +1°C° 0.2 mm 2 mps 744 mmHg 85%
    09:00 +3°C° 0.1 mm 1 mps 744 mmHg 83%
    10:00 +3°C° 0.1 mm 1 mps 744 mmHg 82%
    11:00 +4°C° 0.1 mm 1 mps 744 mmHg 81%
    12:00 +4°C° 0.1 mm 1 mps 744 mmHg 82%
    13:00 +4°C° 0.1 mm 1 mps 743 mmHg 83%
    14:00 +5°C° 0.1 mm 1 mps 743 mmHg 84%
    15:00 +4°C° 0.3 mm 1 mps 743 mmHg 87%
    16:00 +4°C° 0.3 mm 1 mps 743 mmHg 89%
    17:00 +4°C° 0.3 mm 1 mps 743 mmHg 91%
    18:00 +4°C° 0.3 mm 1 mps 743 mmHg 92%
    19:00 +4°C° 0.3 mm 1 mps 743 mmHg 93%
    20:00 +4°C° 0.3 mm 1 mps 744 mmHg 94%
    21:00 +3°C° 0.4 mm 2 mps 744 mmHg 94%
    22:00 +3°C° 0.4 mm 2 mps 744 mmHg 95%
    23:00 +3°C° 0.4 mm 2 mps 744 mmHg 95%

    18 December, Tuesday

    Time Temperature Precipitation Wind Pressure Humidity
    00:00 +3°C° 0.3 mm 2 mps 744 mmHg 95%
    01:00 +3°C° 0.3 mm 2 mps 744 mmHg 95%
    02:00 +3°C° 0.3 mm 2 mps 744 mmHg 95%
    03:00 +3°C° 0.3 mm 2 mps 744 mmHg 95%
    04:00 +2°C° 0.3 mm 3 mps 744 mmHg 95%
    05:00 +2°C° 0.3 mm 3 mps 744 mmHg 94%
    06:00 +2°C° 0.2 mm 3 mps 744 mmHg 94%
    07:00 +2°C° 0.2 mm 3 mps 745 mmHg 93%
    08:00 0°C° 0.2 mm 4 mps 745 mmHg 92%
    09:00 0°C° 0.2 mm 4 mps 746 mmHg 92%
    10:00 0°C° 0.2 mm 4 mps 746 mmHg 91%
    11:00 0°C° 0.2 mm 4 mps 746 mmHg 90%
    12:00 0°C° 0.1 mm 4 mps 746 mmHg 90%
    13:00 -1°C° 0.1 mm 4 mps 746 mmHg 89%
    14:00 -1°C° 0.1 mm 4 mps 746 mmHg 89%
    15:00 -1°C° 0.1 mm 4 mps 747 mmHg 89%
    16:00 -1°C° 0.1 mm 4 mps 747 mmHg 89%
    17:00 -2°C° 0.1 mm 4 mps 747 mmHg 89%
    18:00 -2°C° 0.1 mm 4 mps 747 mmHg 89%
    19:00 -2°C° 0.1 mm 4 mps 748 mmHg 90%
    20:00 -2°C° 0.1 mm 4 mps 748 mmHg 90%
    21:00 -1°C° 0.2 mm 3 mps 748 mmHg 89%
    22:00 -2°C° 0.2 mm 3 mps 748 mmHg 89%
    23:00 -2°C° 0.2 mm 3 mps 748 mmHg 89%

    19 December, Wednesday

    Time Temperature Precipitation Wind Pressure Humidity
    00:00 -2°C° 0.1 mm 3 mps 748 mmHg 89%
    01:00 -2°C° 0.1 mm 3 mps 748 mmHg 88%
    02:00 -4°C° 0.1 mm 3 mps 748 mmHg 88%
    03:00 -4°C° 0 mm 3 mps 748 mmHg 88%
    04:00 -4°C° 0 mm 3 mps 748 mmHg 87%
    05:00 -4°C° 0 mm 3 mps 748 mmHg 87%
    06:00 -5°C° 0 mm 3 mps 748 mmHg 86%
    07:00 -5°C° 0 mm 3 mps 748 mmHg 86%
    08:00 -5°C° 0 mm 3 mps 748 mmHg 85%
    09:00 -4°C° 0.2 mm 3 mps 749 mmHg 85%
    10:00 -4°C° 0.2 mm 3 mps 749 mmHg 84%
    11:00 -4°C° 0.2 mm 3 mps 749 mmHg 84%
    12:00 -4°C° 0.1 mm 3 mps 749 mmHg 83%
    13:00 -4°C° 0.1 mm 4 mps 749 mmHg 82%
    14:00 -4°C° 0.1 mm 4 mps 748 mmHg 82%
    15:00 -4°C° 0 mm 4 mps 749 mmHg 83%
    16:00 -4°C° 0 mm 3 mps 749 mmHg 84%
    17:00 -4°C° 0 mm 3 mps 749 mmHg 84%
    18:00 -4°C° 0 mm 3 mps 749 mmHg 84%
    19:00 -4°C° 0 mm 3 mps 750 mmHg 84%
    20:00 -4°C° 0 mm 3 mps 750 mmHg 83%
    21:00 -5°C° 0 mm 3 mps 751 mmHg 83%
    22:00 -5°C° 0 mm 3 mps 751 mmHg 83%
    23:00 -5°C° 0 mm 3 mps 751 mmHg 83%

    20 December, Thursday

    Time Temperature Precipitation Wind Pressure Humidity
    00:00 -4°C° 0 mm 2 mps 751 mmHg 84%
    01:00 -5°C° 0 mm 2 mps 751 mmHg 84%
    02:00 -5°C° 0 mm 2 mps 751 mmHg 84%
    03:00 -5°C° 0 mm 2 mps 751 mmHg 84%
    04:00 -5°C° 0 mm 2 mps 751 mmHg 84%
    05:00 -3°C° 0 mm 1 mps 751 mmHg 84%
    06:00 -3°C° 0 mm 1 mps 752 mmHg 85%
    07:00 -3°C° 0 mm 1 mps 752 mmHg 85%
    08:00 -4°C° 0 mm 1 mps 752 mmHg 85%
    09:00 -3°C° 0 mm 1 mps 753 mmHg 81%
    10:00 -1°C° 0 mm 1 mps 753 mmHg 76%
    11:00 -2°C° 0 mm 2 mps 753 mmHg 72%
    12:00 -2°C° 0 mm 2 mps 753 mmHg 70%
    13:00 -1°C° 0 mm 2 mps 752 mmHg 68%
    14:00 -1°C° 0 mm 2 mps 752 mmHg 66%
    15:00 -2°C° 0 mm 2 mps 752 mmHg 71%
    16:00 -3°C° 0 mm 2 mps 752 mmHg 76%
    17:00 -2°C° 0 mm 1 mps 752 mmHg 80%
    18:00 -2°C° 0 mm 1 mps 752 mmHg 81%
    19:00 -2°C° 0 mm 1 mps 752 mmHg 82%
    20:00 -5°C° 0 mm 2 mps 753 mmHg 83%
    21:00 -5°C° 0 mm 2 mps 753 mmHg 83%
    22:00 -5°C° 0 mm 2 mps 753 mmHg 83%
    23:00 -5°C° 0 mm 2 mps 753 mmHg 83%
    Show more